sat.trackr.live / text

‹ back to catalog

STARLINK-5503

NORAD 57257 · 2023-094AR

PAYLOAD ACTIVE UNKNOWN

§ Identity

Operator
Country
US
Launch date
2023-07-07
Launch site
AFWTR
Launch vehicle
Mass (kg)
RCS (m²)

Purposes: comms

External: N2YO · Heavens-Above · Gunter

§ Orbital elements

Epoch: 2026-09-20T13:31:57.394272Z

Period
94.27 min
Inclination
43.0034°
Eccentricity
0.0001257
Mean motion
15.27576084 rev/d
Perigee alt
482.2 km
Apogee alt
483.9 km
Semi-major
6,861.2 km
B*
3.0276e-6
RAAN
359.3237°
Arg perigee
267.7097°
Mean anomaly
92.3611°
Rev number
17,770

§ Raw data

STARLINK-55031 57257U 23094AR  26263.56385873 -.00000179  00000+0  30276-5 0  99982 57257  43.0034 359.3237 0001257 267.7097  92.3611 15.27576084177706

JSON: /api/v1/satellites/57257 · /tle

For live sub-satellite position, see the globe view (requires WebGL).

§ Visibility from observer

Set your observer location to see the next 7 days of passes ≥ 10°. The values pass through the URL so the page stays shareable.

No JS? Fill the form by hand. The geolocation button needs JavaScript.